Simultaneous Nadir Overpasses (SNOs) Predictions

Prediction of SNOs over PacNW region [( 10.00, 139.50) to ( 22.70, 165.60)] between NOAA-19 and NPP Satellites:

Table of predicted SNOs over PacNW region for the next 30.0 days since TLE Epoch: 11/8/2013
Index Date (NOAA-19) Time (NOAA-19) NOAA-19 Lat,Lon Date (NPP) Time (NPP) NPP Lat,Lon Distance(km) Time Diff (sec)
1 11/11/2013 14:58:20 22.60, 164.85 11/11/2013 14:59:32 23.58, 160.54 453.53 72
2 11/12/2013 03:56:53 22.68, 142.75 11/12/2013 03:53:47 22.02, 139.59 333.20 186
3 11/24/2013 03:25:03 17.02, 151.80 11/24/2013 03:26:40 15.99, 147.45 477.88 97
4 11/24/2013 16:01:46 13.73, 147.56 11/24/2013 15:59:12 14.46, 144.11 380.41 154
5 12/06/2013 15:29:00 22.60, 157.39 12/06/2013 15:31:09 23.67, 152.76 487.63 129
6 12/07/2013 02:45:22 22.70, 160.82 12/07/2013 02:43:53 21.97, 157.17 384.25 89
